Location: Newark
(13.8117°N, 3.6025°W)
Time: 15:03:51
(UTC+00:00)

Hubble Space Telescope - Pass Details

Date: 29 August 2019
Orbit: 536 x 540 km, 28.5° (Epoch: 22 October)

Event Time Altitude Azimuth Distance (km) Brightness Sun altitude
Rises 20:12:41 0° 265° (W) 2,664 5.4 -25.5°
Reaches altitude 10° 20:16:28 10° 230° (SW) 1,773 3.8 -26.4°
Enters shadow 20:17:44 11° 212° (SSW) 1,693 3.4 -26.7°
